Starlink 3296

operational
NORAD ID: 50168 Int'l Des: 2021-125 Owner: SPXS Country: US Constellation: starlink
LEOCIRCULAR

Starlink 3296について

説明を読み込み中...

リアルタイム位置

3D地球を読み込み中...

次回通過

高度履歴

Altitude vs Time

uPlot chart will show altitude changes over time

軌道要素

1 50168U 21125N 25259.17583267 -.00000757 00000-0 -29492-4 0 9994
2 50168 53.2150 312.6326 0001340 89.9449 270.1696 15.08826844210259
Epoch: Sep 16, 2025 • Age: 11 hours

現在のステータス

高度 542.5 km
速度 7.59 km/s
衛星直下点 -8.95°S, 78.52°E
打ち上げ日 Dec 18, 2021
運用期間 3.7 years
タイプ internet

技術仕様

分類 Payload
質量 290.00 kg
乾燥質量 270.00 kg
総質量 290.00 kg
長さ 0.20 m
直径 2.80 m
スパン 9.00 m
形状 Box + pan
製造者 SPXS
バスタイプ Starlink
フェーズステータス In Orbit
所有者/国 SPXS/US

大規模コンステレーション

Loading constellations...